Location: Clinton NY
(43.0598°N, 75.3602°W)
Time: 15:23:42
(UTC-05:00)

Amateur Radio Satellites - All Passes

Search period start: 28 November 2014 14:53
Search period end: 29 November 2014 14:53
Location: Clinton NY, 43.0598°N, 75.3602°W

Satellite Date Start Highest point End Downlink Frequencies (MHz)
Time Altitude Azimuth
KKS-1 28 Nov 14:58:00 15:02:25 68° 286° (WNW) 15:06:49 437.445
RS-15 28 Nov 15:04:17 15:14:41 52° 112° (ESE) 15:25:03 29.354- 29.394
AO-7 28 Nov 15:12:27 15:20:44 86° 70° (ENE) 15:29:07 29.400- 29.500
HORYU 2 28 Nov 15:16:26 15:20:15 28° 264° (W) 15:24:05 437.375
BEESAT 28 Nov 15:17:52 15:20:01 13° 301° (WNW) 15:22:10 436.000
Gurwin Techsat 1B 28 Nov 15:20:27 15:23:40 16° 270° (W) 15:26:54 435.225
YUBILEINY 28 Nov 15:26:47 15:32:19 19° 283° (WNW) 15:37:52 435.215
AUBIESAT-1 28 Nov 15:31:20 15:32:57 12° 308° (NW) 15:34:35 437.475
STARS 28 Nov 15:48:24 15:52:14 30° 292° (WNW) 15:56:04 437.465
Cubesat XI-IV 28 Nov 15:53:45 15:56:29 14° 58° (ENE) 15:59:13 437.490
VERMONT LUNAR 28 Nov 16:15:27 16:19:00 54° 187° (S) 16:22:33 437.305
PHONESAT 2.4 28 Nov 16:15:47 16:19:26 58° 183° (S) 16:23:06 2401.200-2431.200
MOZHAYETS 4 28 Nov 16:22:31 16:26:34 29° 95° (E) 16:30:35
O/OREOS (USA 219) 28 Nov 16:25:16 16:27:58 16° 260° (W) 16:30:40 437.305
JAS-2 28 Nov 16:28:25 16:36:10 89° 255° (WSW) 16:44:04 435.910
CUTE-I 28 Nov 16:32:06 16:36:39 29° 65° (ENE) 16:41:12 437.470
AO-7 28 Nov 17:08:45 17:14:29 20° 269° (W) 17:20:17 29.400- 29.500
RS-15 28 Nov 17:16:30 17:27:03 52° 316° (NW) 17:37:45 29.354- 29.394
GONETS M04 28 Nov 17:22:59 17:29:35 23° 62° (ENE) 17:36:06
Cubesat XI-IV 28 Nov 17:30:27 17:35:50 88° 255° (WSW) 17:41:13 437.490
PCSat 28 Nov 17:53:17 17:57:10 20° 106° (ESE) 18:01:03 145.827
VERMONT LUNAR 28 Nov 17:54:05 17:57:07 25° 203° (SSW) 18:00:09 437.305
PHONESAT 2.4 28 Nov 17:54:36 17:57:57 32° 200° (SSW) 18:01:17 2401.200-2431.200
MOZHAYETS 4 28 Nov 17:59:40 18:03:45 31° 292° (WNW) 18:07:48
PRISM 28 Nov 18:08:50 18:13:04 67° 102° (ESE) 18:17:15 437.425
CUTE-I 28 Nov 18:11:34 18:16:34 39° 262° (W) 18:21:34 437.470
CUBESAT XI-V 28 Nov 18:12:01 18:16:05 29° 95° (E) 18:20:07 437.345
STRAND 1 28 Nov 18:13:36 18:18:01 29° 95° (E) 18:22:22 437.568
JAS-2 28 Nov 18:16:58 18:22:05 19° 274° (W) 18:27:17 435.910
HO-68 28 Nov 18:24:09 18:29:17 22° 55° (NE) 18:34:25 435.675
BEESAT 3 28 Nov 18:32:29 18:35:34 21° 112° (ESE) 18:38:42 437.485
BEESAT 2 28 Nov 18:49:50 18:53:22 28° 114° (ESE) 18:56:59 435.950
BRITE-PL 28 Nov 18:54:01 18:56:48 16° 64° (ENE) 18:59:28 437.365/2234.400
SEEDS 28 Nov 19:02:41 19:04:57 14° 63° (ENE) 19:07:12 437.485
AAUSAT CUBESAT 2 28 Nov 19:13:35 19:15:46 14° 63° (ENE) 19:17:56 437.432
Cubesat XI-IV 28 Nov 19:15:09 19:16:39 11° 273° (W) 19:18:09 437.490
GONETS M04 28 Nov 19:18:41 19:27:33 84° 264° (W) 19:36:19
AIST 1 28 Nov 19:23:59 19:28:24 83° 278° (W) 19:32:51
COMPASS 1 28 Nov 19:29:41 19:32:58 23° 67° (ENE) 19:36:17 437.405
CANX-2 28 Nov 19:33:04 19:36:55 36° 70° (ENE) 19:40:49 2200.000
RS-15 28 Nov 19:34:17 19:42:48 25° 348° (NNW) 19:51:30 29.354- 29.394
PCSat 28 Nov 19:34:45 19:40:05 60° 304° (NW) 19:45:28 145.827
AIST 2 28 Nov 19:36:58 19:40:59 44° 117° (ESE) 19:45:04 435.215
PRISM 28 Nov 19:46:14 19:48:04 13° 299° (WNW) 19:49:53 437.425
GOMX 1 28 Nov 19:46:51 19:51:04 35° 71° (ENE) 19:55:04 467.674
DX 1 28 Nov 19:49:13 19:52:08 18° 63° (ENE) 19:55:03 434.975-435.025
CUBESAT XI-V 28 Nov 19:49:26 19:53:29 30° 292° (WNW) 19:57:29 437.345
STRAND 1 28 Nov 19:52:36 19:57:14 36° 292° (WNW) 20:01:50 437.568
UWE-3 28 Nov 19:54:50 19:55:12 10° 61° (ENE) 19:55:34 435.000/436.395/437.385
CUBEBUG 2 28 Nov 19:59:04 20:01:08 14° 63° (ENE) 20:03:11 437.445
CUTE 1.7 + AOD 2 28 Nov 20:06:54 20:11:07 79° 76° (ENE) 20:15:22 437.475
HO-68 28 Nov 20:08:57 20:16:09 84° 254° (WSW) 20:23:24 435.675
BEESAT 3 28 Nov 20:09:38 20:13:32 40° 310° (NW) 20:17:30 437.485
ZACube-1 28 Nov 20:20:38 20:23:18 17° 65° (ENE) 20:25:59 437.345
BEESAT 2 28 Nov 20:27:53 20:31:36 31° 313° (NW) 20:35:22 435.950
DOVE 4 28 Nov 20:28:29 20:33:00 72° 75° (ENE) 20:37:17 437.250
BRITE-PL 28 Nov 20:30:05 20:34:56 61° 259° (W) 20:39:27 437.365/2234.400
VELOX 1 28 Nov 20:32:25 20:35:12 17° 63° (ENE) 20:38:00 145.980
SEEDS 28 Nov 20:36:13 20:40:19 56° 260° (W) 20:44:29 437.485
DELFI C3 28 Nov 20:36:56 20:40:50 46° 72° (ENE) 20:44:46 145.870
CINEMA 3 28 Nov 20:42:16 20:46:32 60° 74° (ENE) 20:50:41 145.822/145.860
UKube-1 28 Nov 20:44:58 20:49:16 63° 73° (ENE) 20:53:36 .
50 SAT 28 Nov 20:45:30 20:47:51 15° 64° (ENE) 20:50:13 437.505
AAUSAT CUBESAT 2 28 Nov 20:46:54 20:50:59 56° 260° (W) 20:55:07 437.432
FUNcube-1 28 Nov 20:53:28 20:57:17 36° 71° (ENE) 21:01:06 145.935
Oscar 11 28 Nov 20:53:59 20:58:17 87° 76° (ENE) 21:02:37 145.826/435.025
AISAT 28 Nov 20:59:15 21:03:09 30° 68° (ENE) 21:07:04 437.250
CUBEBUG 1 28 Nov 21:03:03 21:04:58 13° 61° (ENE) 21:06:52 437.445
COMPASS 1 28 Nov 21:04:50 21:08:33 31° 264° (W) 21:12:19 437.405
ISS 28 Nov 21:06:15 21:07:09 11° 130° (SE) 21:08:03 145.825
CANX-2 28 Nov 21:09:52 21:12:59 20° 267° (W) 21:16:08 2200.000
HUMSAT D 28 Nov 21:15:38 21:19:28 38° 71° (ENE) 21:23:18 437.325/437.525
AIST 2 28 Nov 21:16:21 21:19:48 24° 316° (NW) 21:23:19 435.215
GONETS M04 28 Nov 21:17:51 21:22:55 17° 285° (WNW) 21:27:59
PCSat 28 Nov 21:22:06 21:24:40 13° 325° (NW) 21:27:15 145.827
DX 1 28 Nov 21:23:47 21:28:01 48° 260° (W) 21:32:16 434.975-435.025
GOMX 1 28 Nov 21:25:34 21:29:15 23° 265° (W) 21:32:48 467.674
UWE-3 28 Nov 21:26:55 21:31:08 80° 257° (WSW) 21:35:19 435.000/436.395/437.385
UNISAT 6 28 Nov 21:31:47 21:33:47 13° 90° (E) 21:35:48 437.425
CUBEBUG 2 28 Nov 21:33:14 21:37:24 58° 259° (W) 21:41:31 437.445
POLYITAN 1 28 Nov 21:44:45 21:45:39 11° 89° (E) 21:46:32 437.675
QB50P2 28 Nov 21:45:21 21:46:26 11° 89° (E) 21:47:30 145.880/145.840
DUCHIFAT 1 28 Nov 21:48:55 21:50:27 12° 90° (E) 21:51:58 145.980
RS-15 28 Nov 21:50:43 22:00:03 30° 24° (NNE) 22:09:38 29.354- 29.394
ZACube-1 28 Nov 21:55:21 21:59:22 44° 261° (W) 22:03:22 437.345
TISAT 1 28 Nov 21:55:42 21:57:01 11° 61° (ENE) 21:58:20 437.305
ANTELSAT 28 Nov 21:59:30 22:03:14 25° 95° (E) 22:07:00 437.575/2403.000
HO-68 28 Nov 22:01:05 22:04:52 15° 272° (W) 22:08:40 435.675
VELOX 1 28 Nov 22:06:59 22:11:22 54° 259° (W) 22:15:46 145.980
NANOSAT C BR1 28 Nov 22:07:33 22:10:38 19° 93° (E) 22:13:41 145.865
DOVE 4 28 Nov 22:10:12 22:11:12 11° 270° (W) 22:12:11 437.250
BUGSAT 1 28 Nov 22:12:34 22:15:18 17° 93° (E) 22:18:00 437.445
SPROUT 28 Nov 22:13:50 22:16:23 16° 63° (ENE) 22:18:57 437.525
DELFI C3 28 Nov 22:14:05 22:16:24 15° 269° (W) 22:18:44 145.870
CUSAT 1 28 Nov 22:15:28 22:19:28 24° 74° (ENE) 22:24:24 437.405
ESTCUBE 1 28 Nov 22:16:26 22:20:58 73° 75° (ENE) 22:25:32 437.505/2401.250
QB50P1 28 Nov 22:17:34 22:21:04 25° 95° (E) 22:24:34 145.935-145.965
50 SAT 28 Nov 22:18:55 22:22:48 46° 261° (W) 22:26:42 437.505
CINEMA 3 28 Nov 22:22:27 22:24:07 12° 270° (W) 22:25:47 145.822/145.860
UKube-1 28 Nov 22:24:03 22:25:51 12° 270° (W) 22:27:40 .
FUNcube-1 28 Nov 22:30:45 22:33:46 19° 267° (W) 22:36:48 145.935
AISAT 28 Nov 22:35:58 22:39:46 27° 264° (W) 22:43:35 437.250
CUBEBUG 1 28 Nov 22:36:19 22:40:45 73° 258° (WSW) 22:45:12 437.445
ISS 28 Nov 22:40:01 22:43:18 86° 146° (SE) 22:46:36 145.825
POPSAT HIP 1 28 Nov 22:42:24 22:46:29 46° 99° (E) 22:50:32 437.405
TIGRISAT 28 Nov 22:51:03 22:55:32 85° 103° (ESE) 23:00:05 435.000
HUMSAT D 28 Nov 22:52:38 22:55:27 18° 267° (W) 22:58:16 437.325/437.525
DANDE 28 Nov 22:54:36 22:59:07 42° 78° (ENE) 23:05:06 436.750
UNISAT 6 28 Nov 23:06:33 23:10:59 65° 286° (WNW) 23:15:30 437.425
AUBIESAT-1 28 Nov 23:10:47 23:13:55 20° 57° (ENE) 23:17:12 437.475
BEESAT 28 Nov 23:10:55 23:13:06 13° 59° (ENE) 23:15:19 436.000
M-CUBED/EXP-1 PRIME 28 Nov 23:17:50 23:21:18 25° 60° (ENE) 23:25:01 437.505
POLYITAN 1 28 Nov 23:17:51 23:22:04 69° 285° (WNW) 23:26:16 437.675
QB50P2 28 Nov 23:18:36 23:22:49 67° 286° (WNW) 23:27:00 145.880/145.840
DUCHIFAT 1 28 Nov 23:22:33 23:26:44 62° 286° (WNW) 23:30:53 145.980
TISAT 1 28 Nov 23:27:59 23:32:15 76° 257° (WSW) 23:36:31 437.305
ANTELSAT 28 Nov 23:36:03 23:40:03 33° 291° (WNW) 23:44:08 437.575/2403.000
NANOSAT C BR1 28 Nov 23:42:45 23:46:39 37° 290° (WNW) 23:50:32 145.865
BUGSAT 1 28 Nov 23:47:11 23:50:58 38° 289° (WNW) 23:54:43 437.445
SPROUT 28 Nov 23:47:50 23:52:04 53° 260° (W) 23:56:18 437.525
MaSat-1 28 Nov 23:52:47 23:55:03 53° 245° (WSW) 23:57:25 437.345
QB50P1 28 Nov 23:53:18 23:56:58 29° 292° (WNW) 00:00:36 145.935-145.965
ESTCUBE 1 28 Nov 23:56:48 23:58:21 12° 271° (W) 23:59:54 437.505/2401.250
CUSAT 1 28 Nov 23:57:48 00:02:36 48° 263° (W) 00:08:55 437.405
RS-15 29 Nov 00:03:33 00:14:47 72° 52° (NE) 00:26:29 29.354- 29.394
ITUPSAT 1 29 Nov 00:05:48 00:10:18 41° 70° (ENE) 00:14:50 437.325
SWISSCUBE 29 Nov 00:15:14 00:19:56 56° 72° (ENE) 00:24:39 437.505
ISS 29 Nov 00:17:31 00:20:16 24° 345° (NNW) 00:23:00 145.825
POPSAT HIP 1 29 Nov 00:19:20 00:22:02 17° 296° (WNW) 00:24:44 437.405
KKS-1 29 Nov 00:23:16 00:25:27 14° 61° (ENE) 00:27:39 437.445
TIGRISAT 29 Nov 00:30:26 00:31:39 11° 300° (WNW) 00:32:51 435.000
YUBILEINY 29 Nov 00:36:32 00:42:33 21° 78° (ENE) 00:48:32 435.215
DANDE 29 Nov 00:38:30 00:42:33 25° 266° (W) 00:47:34 436.750
AUBIESAT-1 29 Nov 00:44:29 00:48:30 47° 257° (WSW) 00:52:54 437.475
BEESAT 29 Nov 00:45:30 00:50:17 81° 257° (WSW) 00:55:07 436.000
M-CUBED/EXP-1 PRIME 29 Nov 00:52:19 00:56:09 35° 259° (W) 01:00:19 437.505
ITAMSAT 1 29 Nov 01:04:09 01:06:44 14° 89° (E) 01:09:19 435.822/435.867
STARS 29 Nov 01:10:28 01:14:10 27° 67° (ENE) 01:17:52 437.465
Oscar 19 29 Nov 01:41:11 01:46:23 81° 103° (ESE) 01:51:34 437.125/150
ITUPSAT 1 29 Nov 01:44:34 01:48:20 23° 266° (W) 01:52:08 437.325
Gurwin Techsat 1B 29 Nov 01:53:50 01:58:09 25° 94° (E) 02:02:26 435.225
SWISSCUBE 29 Nov 01:55:05 01:58:08 17° 269° (W) 02:01:12 437.505
ISS 29 Nov 01:55:18 01:57:42 19° 5° (N) 02:00:07 145.825
KKS-1 29 Nov 01:57:08 02:01:34 67° 258° (WSW) 02:06:00 437.445
RS-15 29 Nov 02:16:42 02:26:21 35° 254° (WSW) 02:36:24 29.354- 29.394
SO-50 29 Nov 02:17:30 02:21:31 33° 115° (ESE) 02:25:39 436.795
YUBILEINY 29 Nov 02:29:23 02:38:13 83° 278° (W) 02:47:02 435.215
PCSat 29 Nov 02:38:55 02:43:18 24° 45° (NE) 02:47:39 145.827
ITAMSAT 1 29 Nov 02:41:36 02:46:47 75° 286° (WNW) 02:51:56 435.822/435.867
STARS 29 Nov 02:46:44 02:50:34 29° 264° (W) 02:54:26 437.465
BEESAT 3 29 Nov 02:50:55 02:54:13 22° 43° (NE) 02:57:30 437.485
HORYU 2 29 Nov 03:06:20 03:10:44 51° 100° (E) 03:15:07 437.375
BEESAT 2 29 Nov 03:08:55 03:12:35 28° 46° (NE) 03:16:13 435.950
AO-7 29 Nov 03:13:45 03:20:35 27° 94° (E) 03:27:22 29.400- 29.500
Oscar 19 29 Nov 03:22:17 03:25:03 15° 301° (WNW) 03:27:48 437.125/150
MOZHAYETS 4 29 Nov 03:25:38 03:29:38 30° 68° (ENE) 03:33:41
ISS 29 Nov 03:31:51 03:34:59 40° 25° (NNE) 03:38:07 145.825
Gurwin Techsat 1B 29 Nov 03:33:16 03:38:17 44° 291° (WNW) 03:43:17 435.225
JAS-2 29 Nov 03:41:28 03:44:04 12° 82° (E) 03:46:33 435.910
SO-50 29 Nov 03:57:54 04:02:02 33° 314° (NW) 04:06:17 436.795
AIST 2 29 Nov 03:58:06 04:02:13 41° 50° (NE) 04:06:15 435.215
PCSat 29 Nov 04:21:47 04:27:08 62° 244° (WSW) 04:32:27 145.827
ITAMSAT 1 29 Nov 04:24:12 04:25:22 11° 305° (NW) 04:26:31 435.822/435.867
BEESAT 3 29 Nov 04:28:38 04:32:40 47° 242° (WSW) 04:36:39 437.485
YUBILEINY 29 Nov 04:30:44 04:36:28 19° 300° (WNW) 04:42:14 435.215
HORYU 2 29 Nov 04:44:03 04:47:02 18° 297° (WNW) 04:50:00 437.375
BEESAT 2 29 Nov 04:47:06 04:50:55 34° 244° (WSW) 04:54:40 435.950
O/OREOS (USA 219) 29 Nov 04:57:44 05:02:04 50° 108° (ESE) 05:06:24 437.305
PRISM 29 Nov 05:00:31 05:04:38 56° 73° (ENE) 05:08:48 437.425
MOZHAYETS 4 29 Nov 05:02:52 05:06:50 28° 265° (W) 05:10:50
AO-7 29 Nov 05:05:40 05:13:58 70° 293° (WNW) 05:22:15 29.400- 29.500
ISS 29 Nov 05:08:37 05:11:33 30° 222° (SW) 05:14:29 145.825
CUBESAT XI-V 29 Nov 05:16:26 05:20:38 33° 69° (ENE) 05:24:51 437.345
JAS-2 29 Nov 05:23:26 05:30:28 80° 103° (ESE) 05:36:35 435.910
STRAND 1 29 Nov 05:30:15 05:35:09 46° 70° (ENE) 05:40:03 437.568
AIST 1 29 Nov 05:30:56 05:34:38 26° 73° (ENE) 05:38:18
AIST 2 29 Nov 05:37:16 05:40:36 22° 248° (WSW) 05:43:54 435.215
Cubesat XI-IV 29 Nov 05:47:12 05:52:02 34° 97° (E) 05:56:49 437.490
GONETS M04 29 Nov 06:26:37 06:33:08 24° 79° (E) 06:39:39
CUTE-I 29 Nov 06:27:17 06:32:38 78° 103° (ESE) 06:37:56 437.470
PRISM 29 Nov 06:38:33 06:40:33 13° 269° (W) 06:42:33 437.425
O/OREOS (USA 219) 29 Nov 06:38:35 06:41:46 19° 306° (NW) 06:44:56 437.305
CUBESAT XI-V 29 Nov 06:54:04 06:58:05 27° 265° (W) 07:02:07 437.345
AO-7 29 Nov 07:00:15 07:05:18 18° 314° (NW) 07:10:22 29.400- 29.500
AIST 1 29 Nov 07:08:34 07:12:15 27° 271° (W) 07:15:53
JAS-2 29 Nov 07:09:42 07:14:33 21° 305° (NW) 07:19:03 435.910
STRAND 1 29 Nov 07:10:33 07:14:32 23° 267° (W) 07:18:33 437.568
Cubesat XI-IV 29 Nov 07:27:22 07:32:03 32° 294° (WNW) 07:36:43 437.490
HO-68 29 Nov 07:37:22 07:41:52 17° 89° (E) 07:46:20 435.675
CUTE 1.7 + AOD 2 29 Nov 07:53:17 07:55:20 13° 90° (E) 07:57:23 437.475
CUTE-I 29 Nov 08:08:58 08:12:02 16° 301° (WNW) 08:15:07 437.470
GONETS M04 29 Nov 08:20:09 08:28:58 76° 280° (W) 08:37:52
SEEDS 29 Nov 08:20:38 08:24:02 23° 94° (E) 08:27:25 437.485
DOVE 4 29 Nov 08:27:39 08:30:19 16° 92° (E) 08:33:01 437.250
AAUSAT CUBESAT 2 29 Nov 08:30:16 08:33:33 21° 94° (E) 08:36:49 437.432
UNISAT 6 29 Nov 08:32:54 08:34:51 13° 61° (ENE) 08:36:49 437.425
BRITE-PL 29 Nov 08:33:59 08:37:47 34° 97° (E) 08:41:40 437.365/2234.400
CINEMA 3 29 Nov 08:37:51 08:39:46 13° 91° (E) 08:41:42 145.822/145.860
POLYITAN 1 29 Nov 08:40:04 08:40:59 11° 60° (ENE) 08:41:55 437.675
QB50P2 29 Nov 08:40:29 08:41:32 11° 60° (ENE) 08:42:34 145.880/145.840
Oscar 11 29 Nov 08:41:56 08:44:27 15° 91° (E) 08:46:57 145.826/435.025
DUCHIFAT 1 29 Nov 08:43:42 08:45:07 12° 61° (ENE) 08:46:33 145.980
COMPASS 1 29 Nov 08:47:36 08:51:34 37° 97° (E) 08:55:31 437.405
CANX-2 29 Nov 08:53:09 08:57:27 65° 101° (E) 09:01:43 2200.000
ANTELSAT 29 Nov 09:00:21 09:03:48 24° 67° (ENE) 09:07:16 437.575/2403.000
NANOSAT C BR1 29 Nov 09:02:04 09:04:58 18° 65° (ENE) 09:07:51 145.865
BUGSAT 1 29 Nov 09:04:28 09:07:04 16° 64° (ENE) 09:09:40 437.445
SO-50 29 Nov 09:09:31 09:10:24 10° 28° (NNE) 09:11:16 436.795
DX 1 29 Nov 09:11:43 09:15:23 26° 96° (E) 09:19:00 434.975-435.025
QB50P1 29 Nov 09:11:59 09:15:18 23° 66° (ENE) 09:18:38 145.935-145.965
UWE-3 29 Nov 09:16:49 09:19:51 19° 93° (E) 09:22:55 435.000/436.395/437.385
HO-68 29 Nov 09:23:13 09:30:26 87° 287° (WNW) 09:37:35 435.675
CUBEBUG 2 29 Nov 09:23:45 09:27:19 25° 95° (E) 09:30:58 437.445
GOMX 1 29 Nov 09:25:01 09:29:13 89° 286° (WNW) 09:33:33 467.674
CUTE 1.7 + AOD 2 29 Nov 09:27:24 09:31:38 58° 286° (WNW) 09:35:51 437.475
POPSAT HIP 1 29 Nov 09:36:31 09:40:30 40° 71° (ENE) 09:44:29 437.405
ZACube-1 29 Nov 09:43:12 09:46:59 30° 96° (E) 09:50:49 437.345
TIGRISAT 29 Nov 09:51:07 09:55:22 84° 76° (ENE) 09:59:39 435.000
DELFI C3 29 Nov 09:51:55 09:56:05 74° 102° (ESE) 10:00:13 145.870
SEEDS 29 Nov 09:56:05 09:59:55 33° 290° (WNW) 10:03:45 437.485
VELOX 1 29 Nov 09:57:27 10:01:10 26° 95° (E) 10:04:51 145.980
50 SAT 29 Nov 09:59:23 10:02:34 22° 94° (E) 10:05:45 437.505
DOVE 4 29 Nov 10:04:19 10:08:19 44° 288° (WNW) 10:12:27 437.250
AAUSAT CUBESAT 2 29 Nov 10:05:28 10:09:18 34° 290° (WNW) 10:13:08 437.432
UNISAT 6 29 Nov 10:06:54 10:11:08 64° 259° (WSW) 10:15:24 437.425
UKube-1 29 Nov 10:08:03 10:12:24 79° 285° (WNW) 10:16:43 .
ESTCUBE 1 29 Nov 10:10:06 10:12:34 14° 90° (E) 10:15:01 437.505/2401.250
POLYITAN 1 29 Nov 10:12:03 10:16:19 80° 257° (WSW) 10:20:34 437.675
QB50P2 29 Nov 10:12:34 10:16:50 79° 257° (WSW) 10:21:06 145.880/145.840
BRITE-PL 29 Nov 10:13:04 10:16:10 21° 293° (WNW) 10:19:17 437.365/2234.400
CINEMA 3 29 Nov 10:13:08 10:17:20 59° 286° (WNW) 10:21:39 145.822/145.860
DUCHIFAT 1 29 Nov 10:16:10 10:20:25 74° 258° (WSW) 10:24:40 145.980
Oscar 11 29 Nov 10:16:41 10:20:56 52° 287° (WNW) 10:25:09 145.826/435.025
FUNcube-1 29 Nov 10:16:53 10:21:08 71° 102° (ESE) 10:25:29 145.935
GONETS M04 29 Nov 10:22:13 10:27:29 17° 302° (WNW) 10:32:48
COMPASS 1 29 Nov 10:23:55 10:27:04 21° 294° (WNW) 10:30:13 437.405
AISAT 29 Nov 10:25:34 10:29:55 53° 100° (E) 10:34:13 437.250
CUBEBUG 1 29 Nov 10:25:35 10:28:44 19° 93° (E) 10:31:51 437.445
CANX-2 29 Nov 10:30:51 10:32:52 13° 298° (WNW) 10:34:52 2200.000
HUMSAT D 29 Nov 10:34:43 10:38:54 68° 102° (ESE) 10:43:06 437.325/437.525
NANOSAT C BR1 29 Nov 10:36:29 10:40:32 43° 261° (W) 10:44:36 145.865
ANTELSAT 29 Nov 10:36:44 10:40:29 30° 264° (W) 10:44:17 437.575/2403.000
BUGSAT 1 29 Nov 10:38:04 10:42:12 49° 260° (W) 10:46:18 437.445
YUBILEINY 29 Nov 10:47:10 10:47:46 10° 50° (NE) 10:48:22 435.215
QB50P1 29 Nov 10:47:11 10:51:02 33° 263° (W) 10:54:54 145.935-145.965
SO-50 29 Nov 10:47:35 10:52:13 42° 49° (NE) 10:56:53 436.795
DX 1 29 Nov 10:47:49 10:51:36 30° 292° (WNW) 10:55:22 434.975-435.025
UWE-3 29 Nov 10:52:34 10:56:34 40° 289° (WNW) 11:00:39 435.000/436.395/437.385
CUBEBUG 2 29 Nov 11:00:18 11:04:01 30° 291° (WNW) 11:07:49 437.445
HO-68 29 Nov 11:12:28 11:17:09 19° 307° (NW) 11:21:50 435.675
TISAT 1 29 Nov 11:13:33 11:16:09 16° 92° (E) 11:18:44 437.305
POPSAT HIP 1 29 Nov 11:13:38 11:16:35 18° 267° (W) 11:19:32 437.405
ZACube-1 29 Nov 11:19:46 11:23:16 25° 292° (WNW) 11:26:49 437.345
Oscar 19 29 Nov 11:22:06 11:25:24 18° 61° (ENE) 11:28:42 437.125/150
DELFI C3 29 Nov 11:29:40 11:30:47 11° 299° (WNW) 11:31:54 145.870
VELOX 1 29 Nov 11:33:52 11:37:45 30° 292° (WNW) 11:41:36 145.980
50 SAT 29 Nov 11:34:18 11:37:54 31° 290° (WNW) 11:41:31 437.505
SPROUT 29 Nov 11:34:19 11:37:49 24° 95° (E) 11:41:18 437.525
ESTCUBE 1 29 Nov 11:45:21 11:49:49 58° 287° (WNW) 11:54:14 437.505/2401.250
FUNcube-1 29 Nov 11:55:19 11:56:58 12° 298° (WNW) 11:58:38 145.935
CUBEBUG 1 29 Nov 12:01:12 12:05:17 40° 290° (WNW) 12:09:19 437.445
AISAT 29 Nov 12:03:23 12:06:08 16° 297° (WNW) 12:08:53 437.250
HUMSAT D 29 Nov 12:12:31 12:14:11 12° 298° (WNW) 12:15:51 437.325/437.525
DANDE 29 Nov 12:13:28 12:15:51 30° 96° (E) 12:18:14 436.750
SWISSCUBE 29 Nov 12:16:40 12:18:59 13° 90° (E) 12:21:17 437.505
ITAMSAT 1 29 Nov 12:22:27 12:26:38 25° 64° (ENE) 12:30:48 435.822/435.867
VERMONT LUNAR 29 Nov 12:22:50 12:25:16 17° 152° (SSE) 12:27:42 437.305
AUBIESAT-1 29 Nov 12:27:34 12:30:22 15° 94° (E) 12:33:06 437.475
PHONESAT 2.4 29 Nov 12:27:43 12:29:45 14° 149° (SSE) 12:31:47 2401.200-2431.200
SO-50 29 Nov 12:28:30 12:32:37 28° 247° (WSW) 12:36:44 436.795
AO-7 29 Nov 12:29:55 12:30:41 10° 37° (NE) 12:31:28 29.400- 29.500
M-CUBED/EXP-1 PRIME 29 Nov 12:34:54 12:38:28 20° 96° (E) 12:41:57 437.505
YUBILEINY 29 Nov 12:38:37 12:47:05 52° 75° (ENE) 12:55:28 435.215
BEESAT 29 Nov 12:45:38 12:49:33 24° 94° (E) 12:53:25 436.000
TISAT 1 29 Nov 12:48:13 12:52:14 45° 288° (WNW) 12:56:14 437.305
Oscar 19 29 Nov 12:59:08 13:04:12 65° 258° (WSW) 13:09:19 437.125/150
SPROUT 29 Nov 13:10:09 13:13:55 31° 291° (WNW) 13:17:40 437.525
CUSAT 1 29 Nov 13:14:31 13:16:20 17° 289° (WNW) 13:18:13 437.405
Gurwin Techsat 1B 29 Nov 13:15:40 13:20:38 43° 69° (ENE) 13:25:38 435.225
MaSat-1 29 Nov 13:22:01 13:23:31 13° 109° (ESE) 13:24:57 437.345
O/OREOS (USA 219) 29 Nov 13:28:43 13:31:10 14° 51° (NE) 13:33:36 437.305
ITUPSAT 1 29 Nov 13:43:05 13:47:55 88° 105° (ESE) 13:52:43 437.325
KKS-1 29 Nov 13:48:14 13:51:41 22° 94° (E) 13:55:06 437.445
SWISSCUBE 29 Nov 13:52:33 13:57:20 69° 286° (WNW) 14:02:04 437.505
VERMONT LUNAR 29 Nov 13:59:47 14:03:14 45° 168° (SSE) 14:06:43 437.305
ITAMSAT 1 29 Nov 14:00:53 14:05:51 45° 261° (W) 14:10:51 435.822/435.867
AUBIESAT-1 29 Nov 14:00:54 14:05:47 67° 291° (WNW) 14:10:30 437.475
PHONESAT 2.4 29 Nov 14:04:28 14:07:58 40° 165° (SSE) 14:11:28 2401.200-2431.200
HORYU 2 29 Nov 14:05:52 14:10:10 53° 72° (ENE) 14:14:30 437.375
M-CUBED/EXP-1 PRIME 29 Nov 14:08:58 14:13:46 52° 293° (WNW) 14:18:25 437.505
AO-7 29 Nov 14:13:38 14:21:13 42° 60° (ENE) 14:28:50 29.400- 29.500
BEESAT 29 Nov 14:23:04 14:27:29 38° 291° (WNW) 14:31:52 436.000
RS-15 29 Nov 14:29:13 14:38:59 40° 108° (ESE) 14:48:43 29.354- 29.394
STARS 29 Nov 14:35:19 14:39:34 46° 99° (E) 14:43:47 437.465
YUBILEINY 29 Nov 14:35:56 14:43:33 36° 275° (W) 14:51:08 435.215
